Location: Sauerland
(51.1981°N, 7.8053°E)
Time: 07:14:17
(UTC+02:00)

ISS - Visible Passes

Search period start: 24 September 2018 00:00
Search period end: 04 October 2018 00:00
Orbit: 403 x 409 km, 51.6° (Epoch: 24 September)

Date Brightness Start Highest point End Pass type
(mag) Time Alt. Az. Time Alt. Az. Time Alt. Az.
24 Sep -2.3 20:18:59 10° SSW 20:21:30 20° SE 20:22:58 15° ESE visible
24 Sep -1.7 21:54:20 10° WSW 21:55:40 22° WSW 21:55:40 22° WSW visible
25 Sep -3.6 21:02:37 10° SW 21:05:50 50° SSE 21:06:06 49° SE visible
26 Sep -3.0 20:11:00 10° SW 20:14:03 35° SSE 20:16:25 15° E visible
26 Sep -2.3 21:47:05 10° W 21:49:06 34° W 21:49:06 34° W visible
27 Sep -3.9 20:55:13 10° WSW 20:58:31 76° SSE 20:59:20 47° E visible
27 Sep -0.5 22:31:46 10° W 22:32:00 12° W 22:32:00 12° W visible
28 Sep -3.6 20:03:25 10° WSW 20:06:40 58° SSE 20:09:28 13° E visible
28 Sep -2.6 21:39:51 10° W 21:42:09 41° W 21:42:09 41° W visible
29 Sep -3.9 20:47:56 10° W 20:51:14 85° N 20:52:14 42° E visible
29 Sep -0.6 22:24:29 10° W 22:24:54 13° W 22:24:54 13° W visible
30 Sep -3.8 19:56:00 10° WSW 19:59:19 83° SSE 20:02:17 12° E visible
30 Sep -2.7 21:32:33 10° W 21:34:57 45° WNW 21:34:57 45° WNW visible
01 Oct -3.8 20:40:37 10° W 20:43:56 81° N 20:44:59 40° E visible
01 Oct -0.6 22:17:09 10° W 22:17:39 13° W 22:17:39 13° W visible
02 Oct -3.8 19:48:39 10° W 19:51:58 82° N 19:54:59 12° E visible
02 Oct -2.8 21:25:12 10° W 21:27:39 46° W 21:27:39 46° W visible
03 Oct -3.9 20:33:14 10° W 20:36:34 90° ESE 20:37:39 39° E visible
03 Oct -0.6 22:09:51 10° W 22:10:19 13° W 22:10:19 13° W visible
